AL, 03, 1884091000,   , BEST,   0, 287N,  791W,  40,     , TS, , , , , , , , , , , , , ,    UNNAMED
AL, 03, 1884091006,   , BEST,   0, 297N,  801W,  40,     , TS, , , , , , , , , , , , , ,    UNNAMED
AL, 03, 1884091012,   , BEST,   0, 306N,  806W,  40,     , TS, , , , , , , , , , , , , ,    UNNAMED
AL, 03, 1884091018,   , BEST,   0, 310N,  809W,  40,     , TS, , , , , , , , , , , , , ,    UNNAMED
AL, 03, 1884091100,   , BEST,   0, 315N,  811W,  40,     , TS, , , , , , , , , , , , , ,    UNNAMED
AL, 03, 1884091101,   , BEST,   0, 316N,  812W,  40,     , TS, , , , , , , , , , , , , ,    UNNAMED
AL, 03, 1884091106,   , BEST,   0, 319N,  815W,  40,     , TS, , , , , , , , , , , , , ,    UNNAMED
AL, 03, 1884091112,   , BEST,   0, 325N,  816W,  30,     , TD, , , , , , , , , , , , , ,    UNNAMED
AL, 03, 1884091118,   , BEST,   0, 330N,  813W,  30,     , TD, , , , , , , , , , , , , ,    UNNAMED
AL, 03, 1884091200,   , BEST,   0, 332N,  810W,  30,     , TD, , , , , , , , , , , , , ,    UNNAMED
AL, 03, 1884091206,   , BEST,   0, 332N,  804W,  30,     , TD, , , , , , , , , , , , , ,    UNNAMED
AL, 03, 1884091212,   , BEST,   0, 330N,  799W,  30,     , TD, , , , , , , , , , , , , ,    UNNAMED
AL, 03, 1884091218,   , BEST,   0, 322N,  796W,  40,     , TS, , , , , , , , , , , , , ,    UNNAMED
AL, 03, 1884091300,   , BEST,   0, 314N,  791W,  50,     , TS, , , , , , , , , , , , , ,    UNNAMED
AL, 03, 1884091306,   , BEST,   0, 305N,  785W,  50,     , TS, , , , , , , , , , , , , ,    UNNAMED
AL, 03, 1884091312,   , BEST,   0, 303N,  773W,  50,     , TS, , , , , , , , , , , , , ,    UNNAMED
AL, 03, 1884091318,   , BEST,   0, 305N,  764W,  50,     , TS, , , , , , , , , , , , , ,    UNNAMED
AL, 03, 1884091400,   , BEST,   0, 307N,  755W,  60,     , TS, , , , , , , , , , , , , ,    UNNAMED
AL, 03, 1884091406,   , BEST,   0, 305N,  744W,  60,     , TS, , , , , , , , , , , , , ,    UNNAMED
AL, 03, 1884091412,   , BEST,   0, 300N,  740W,  60,     , TS, , , , , , , , , , , , , ,    UNNAMED
AL, 03, 1884091418,   , BEST,   0, 296N,  739W,  70,     , HU, , , , , , , , , , , , , ,    UNNAMED
AL, 03, 1884091500,   , BEST,   0, 293N,  739W,  70,  982, HU, , , , , , , , , , , , , ,    UNNAMED
AL, 03, 1884091506,   , BEST,   0, 288N,  740W,  70,     , HU, , , , , , , , , , , , , ,    UNNAMED
AL, 03, 1884091512,   , BEST,   0, 284N,  744W,  70,     , HU, , , , , , , , , , , , , ,    UNNAMED
AL, 03, 1884091518,   , BEST,   0, 281N,  749W,  70,     , HU, , , , , , , , , , , , , ,    UNNAMED
AL, 03, 1884091600,   , BEST,   0, 279N,  754W,  70,     , HU, , , , , , , , , , , , , ,    UNNAMED
AL, 03, 1884091606,   , BEST,   0, 278N,  760W,  70,  988, HU, , , , , , , , , , , , , ,    UNNAMED
AL, 03, 1884091612,   , BEST,   0, 278N,  758W,  70,     , HU, , , , , , , , , , , , , ,    UNNAMED
AL, 03, 1884091618,   , BEST,   0, 279N,  755W,  70,     , HU, , , , , , , , , , , , , ,    UNNAMED
AL, 03, 1884091700,   , BEST,   0, 281N,  751W,  80,     , HU, , , , , , , , , , , , , ,    UNNAMED
AL, 03, 1884091706,   , BEST,   0, 284N,  746W,  80,     , HU, , , , , , , , , , , , , ,    UNNAMED
AL, 03, 1884091712,   , BEST,   0, 288N,  735W,  80,     , HU, , , , , , , , , , , , , ,    UNNAMED
AL, 03, 1884091718,   , BEST,   0, 292N,  715W,  80,     , HU, , , , , , , , , , , , , ,    UNNAMED
AL, 03, 1884091800,   , BEST,   0, 296N,  680W,  80,     , HU, , , , , , , , , , , , , ,    UNNAMED
AL, 03, 1884091806,   , BEST,   0, 302N,  653W,  80,  979, HU, , , , , , , , , , , , , ,    UNNAMED
AL, 03, 1884091812,   , BEST,   0, 314N,  613W,  80,     , HU, , , , , , , , , , , , , ,    UNNAMED
AL, 03, 1884091818,   , BEST,   0, 340N,  585W,  80,     , HU, , , , , , , , , , , , , ,    UNNAMED
AL, 03, 1884091900,   , BEST,   0, 390N,  560W,  70,     , HU, , , , , , , , , , , , , ,    UNNAMED
AL, 03, 1884091906,   , BEST,   0, 427N,  535W,  70,  982, HU, , , , , , , , , , , , , ,    UNNAMED
AL, 03, 1884091912,   , BEST,   0, 445N,  505W,  70,     , HU, , , , , , , , , , , , , ,    UNNAMED
AL, 03, 1884091918,   , BEST,   0, 460N,  458W,  70,     , HU, , , , , , , , , , , , , ,    UNNAMED
AL, 03, 1884092000,   , BEST,   0, 477N,  404W,  60,     , EX, , , , , , , , , , , , , ,    UNNAMED
AL, 03, 1884092006,   , BEST,   0, 495N,  345W,  60,     , EX, , , , , , , , , , , , , ,    UNNAMED
AL, 03, 1884092012,   , BEST,   0, 510N,  290W,  50,     , EX, , , , , , , , , , , , , ,    UNNAMED
AL, 03, 1884092018,   , BEST,   0, 530N,  230W,  50,     , EX, , , , , , , , , , , , , ,    UNNAMED
